THORAD AGENA D DEB, 4211

Orbit data source: Space-Track

THORAD AGENA D DEB, 4211 is space debris in LEO originally from a launch on Tue, 30 Sep 1969 UTC launched from the Air Force Western Test Range (AFWTR). Debris objects in space refer to the collection of defunct objects orbiting the Earth. Examples of debris include non-operational satellites, rocket bodies, and fragments generated from explosions, collisions, or faulty payload assembly.

Loading next visibility...
Identifier
4211, 1969-082CA
Orbit
LEO
Country
Flag of USUS
Related business
Manufacturer
Unknown
Mission
Spacecraft
Bus & Motor
Unknown
Mass
Unknown
Launch date (UTC)
1969-09-30 (57 years ago)
Launch vehicle
Unknown
Launch site
Air Force Western Test Range (AFWTR)
Object type
Payload
Rocket body
Debris
Shape & HBR
Unknown shape, 0.3 m
Radar Cross Section
Medium (>0.1 m² and <1 m²)

Expand to show TLE details & history
Last TLE update: 3 days ago

TLE from 3 days ago
0 THORAD AGENA D DEB
1  4211U 69082CA  26171.33728966  .00000004  00000-0  32088-4 0  9993
2  4211  70.0724  31.2906 0033084 336.0894  23.8681 14.11460862913477
Epoch: 2026-06-20T08:05Z
TLE epoch observation values (Epoch: 2026-06-20T08:05:41.826Z)
Latitude
-0.0001°
Longitude
1.31293°
Altitude
834.84 km
Speed
7.447 km/s
True Right ascension
02h 05m 09s
True Declination
0° 00' 00"
Sunlit
Object was in daylight at epoch
Visualization orbit readout
Latitude
Unknown
Longitude
Unknown
Altitude
Unknown
Speed
Unknown
Apparent Right ascension
Unknown
Apparent Declination
Unknown
Sunlit
N/A
Visualization observer readout
Local Sidereal Time
07:10:44
Azimuth
Unknown
Elevation
Unknown
Doppler factor
Unknown
Orbital elements
Apogee altitude
876.32 km
Perigee altitude
828.477 km
Semi-major axis
7,230.535 km
Eccentricity
0.00331
Inclination
70.0724°
RAAN
31.2906°
Arg. of periapsis
336.0894°
True anomaly
24.02208°
Mean anomaly
23.8681°
Eccentric anomaly
23.94503°
Mean motion
3.5301 °/min
Orbital period
101.98 mins
BSTAR
0.000032088

Documentation

Showing up to 5 results
|